Location: Bittelbronn
(48.4454°N, 8.5870°E)
Time: 17:25:47
(UTC+00:00)

Cosmos 1763 Rocket - Pass Details

Date: 23 May 2024
Orbit: 730 x 778 km, 74.0° (Epoch: 16 June)

Event Time Altitude Azimuth Distance (km) Brightness Sun altitude
Rises 00:49:44 0° 329° (NNW) 3,271 7.3 -18.2°
Reaches altitude 10° 00:52:21 10° 320° (NW) 2,338 6.4 -18.0°
Maximum altitude 00:56:59 32° 259° (W) 1,321 4.4 -17.7°
Enters shadow 00:58:22 28° 231° (SW) 1,435 4.4 -17.7°
